Year,Month,Day,Hour,Minute,Value (Times are PST for windspeed in km/hr)
2017,09,29,00,00,4.50
2017,09,29,00,01,2.90
2017,09,29,00,02,4.40
2017,09,29,00,03,5.60
2017,09,29,00,04,3.80
2017,09,29,00,05,3.50
2017,09,29,00,06,0.00
2017,09,29,00,07,1.00
2017,09,29,00,08,0.80
2017,09,29,00,09,0.00
2017,09,29,00,10,2.30
2017,09,29,00,11,0.60
2017,09,29,00,12,0.00
2017,09,29,00,13,1.70
2017,09,29,00,14,1.60
2017,09,29,00,15,3.70
2017,09,29,00,16,3.70
2017,09,29,00,17,4.20
2017,09,29,00,18,6.90
2017,09,29,00,19,4.60
2017,09,29,00,20,4.20
2017,09,29,00,21,5.00
2017,09,29,00,22,3.00
2017,09,29,00,23,4.00
2017,09,29,00,24,4.00
2017,09,29,00,25,3.30
2017,09,29,00,26,3.20
2017,09,29,00,27,2.00
2017,09,29,00,28,3.20
2017,09,29,00,29,1.40
2017,09,29,00,30,3.50
2017,09,29,00,31,4.00
2017,09,29,00,32,5.30
2017,09,29,00,33,5.30
2017,09,29,00,34,5.30
2017,09,29,00,35,4.60
2017,09,29,00,36,5.90
2017,09,29,00,37,4.70
2017,09,29,00,38,4.20
2017,09,29,00,39,5.40
2017,09,29,00,40,4.20
2017,09,29,00,41,5.90
2017,09,29,00,42,4.40
2017,09,29,00,43,5.90
2017,09,29,00,44,7.10
2017,09,29,00,45,4.40
2017,09,29,00,46,5.80
2017,09,29,00,47,2.70
2017,09,29,00,48,4.10
2017,09,29,00,49,5.50
2017,09,29,00,50,4.70
2017,09,29,00,51,4.80
2017,09,29,00,52,4.40
2017,09,29,00,53,6.30
2017,09,29,00,54,4.80
2017,09,29,00,55,4.90
2017,09,29,00,56,4.70
2017,09,29,00,57,5.70
2017,09,29,00,58,5.80
2017,09,29,00,59,4.90
2017,09,29,01,00,5.60
2017,09,29,01,01,4.80
2017,09,29,01,02,4.30
2017,09,29,01,03,3.70
2017,09,29,01,04,3.50
2017,09,29,01,05,5.60
2017,09,29,01,06,6.00
2017,09,29,01,07,4.90
2017,09,29,01,08,6.10
2017,09,29,01,09,6.40
2017,09,29,01,10,5.20
2017,09,29,01,11,4.30
2017,09,29,01,12,6.60
2017,09,29,01,13,5.70
2017,09,29,01,14,7.20
2017,09,29,01,15,5.40
2017,09,29,01,16,4.90
2017,09,29,01,17,6.00
2017,09,29,01,18,4.50
2017,09,29,01,19,6.60
2017,09,29,01,20,5.50
2017,09,29,01,21,5.30
2017,09,29,01,22,4.90
2017,09,29,01,23,3.00
2017,09,29,01,24,2.80
2017,09,29,01,25,3.10
2017,09,29,01,26,3.60
2017,09,29,01,27,3.70
2017,09,29,01,28,2.80
2017,09,29,01,29,4.40
2017,09,29,01,30,3.50
2017,09,29,01,31,3.00
2017,09,29,01,32,3.70
2017,09,29,01,33,6.30
2017,09,29,01,34,5.40
2017,09,29,01,35,5.20
2017,09,29,01,36,5.10
2017,09,29,01,37,5.70
2017,09,29,01,38,5.60
2017,09,29,01,39,4.00
2017,09,29,01,40,4.00
2017,09,29,01,41,3.70
2017,09,29,01,42,3.70
2017,09,29,01,43,5.00
2017,09,29,01,44,5.40
2017,09,29,01,45,3.20
2017,09,29,01,46,3.60
2017,09,29,01,47,4.30
2017,09,29,01,48,3.00
2017,09,29,01,49,6.00
2017,09,29,01,50,6.10
2017,09,29,01,51,5.10
2017,09,29,01,52,5.30
2017,09,29,01,53,5.00
2017,09,29,01,54,5.30
2017,09,29,01,55,5.10
2017,09,29,01,56,3.70
2017,09,29,01,57,3.30
2017,09,29,01,58,3.00
2017,09,29,01,59,2.70
2017,09,29,02,00,0.10
2017,09,29,02,01,2.40
2017,09,29,02,02,1.80
2017,09,29,02,03,0.10
2017,09,29,02,04,0.00
2017,09,29,02,05,1.70
2017,09,29,02,06,1.70
2017,09,29,02,07,0.60
2017,09,29,02,08,3.40
2017,09,29,02,09,1.70
2017,09,29,02,10,1.30
2017,09,29,02,11,0.30
2017,09,29,02,12,1.30
2017,09,29,02,13,1.80
2017,09,29,02,14,2.50
2017,09,29,02,15,5.20
2017,09,29,02,16,5.10
2017,09,29,02,17,2.90
2017,09,29,02,18,3.70
2017,09,29,02,19,7.30
2017,09,29,02,20,5.50
2017,09,29,02,21,5.50
2017,09,29,02,22,4.80
2017,09,29,02,23,2.90
2017,09,29,02,24,1.10
2017,09,29,02,25,0.20
2017,09,29,02,26,0.10
2017,09,29,02,27,0.00
2017,09,29,02,28,0.00
2017,09,29,02,29,0.00
2017,09,29,02,30,0.00
2017,09,29,02,31,0.00
2017,09,29,02,32,0.00
2017,09,29,02,33,0.00
2017,09,29,02,34,0.00
2017,09,29,02,35,0.00
2017,09,29,02,36,0.00
2017,09,29,02,37,0.00
2017,09,29,02,38,0.30
2017,09,29,02,39,4.10
2017,09,29,02,40,3.50
2017,09,29,02,41,4.60
2017,09,29,02,42,4.10
2017,09,29,02,43,1.10
2017,09,29,02,44,2.20
2017,09,29,02,45,0.70
2017,09,29,02,46,0.00
2017,09,29,02,47,0.00
2017,09,29,02,48,0.00
2017,09,29,02,49,0.10
2017,09,29,02,50,0.00
2017,09,29,02,51,0.80
2017,09,29,02,52,0.30
2017,09,29,02,53,0.90
2017,09,29,02,54,0.00
2017,09,29,02,55,0.10
2017,09,29,02,56,3.40
2017,09,29,02,57,1.80
2017,09,29,02,58,3.10
2017,09,29,02,59,4.30
2017,09,29,03,00,2.10
2017,09,29,03,01,2.30
2017,09,29,03,02,4.10
2017,09,29,03,03,2.90
2017,09,29,03,04,4.00
2017,09,29,03,05,3.70
2017,09,29,03,06,0.00
2017,09,29,03,07,0.10
2017,09,29,03,08,1.60
2017,09,29,03,09,2.00
2017,09,29,03,10,3.50
2017,09,29,03,11,2.30
2017,09,29,03,12,1.80
2017,09,29,03,13,2.50
2017,09,29,03,14,2.20
2017,09,29,03,15,3.60
2017,09,29,03,16,2.00
2017,09,29,03,17,0.10
2017,09,29,03,18,0.00
2017,09,29,03,19,0.10
2017,09,29,03,20,0.10
2017,09,29,03,21,0.00
2017,09,29,03,22,0.20
2017,09,29,03,23,2.90
2017,09,29,03,24,2.30
2017,09,29,03,25,2.00
2017,09,29,03,26,1.70
2017,09,29,03,27,0.10
2017,09,29,03,28,0.30
2017,09,29,03,29,0.80
2017,09,29,03,30,0.10
2017,09,29,03,31,0.00
2017,09,29,03,32,0.00
2017,09,29,03,33,0.10
2017,09,29,03,34,2.40
2017,09,29,03,35,2.20
2017,09,29,03,36,0.00
2017,09,29,03,37,0.00
2017,09,29,03,38,0.00
2017,09,29,03,39,0.00
2017,09,29,03,40,0.00
2017,09,29,03,41,0.00
2017,09,29,03,42,1.70
2017,09,29,03,43,0.00
2017,09,29,03,44,0.10
2017,09,29,03,45,0.20
2017,09,29,03,46,1.30
2017,09,29,03,47,1.10
2017,09,29,03,48,0.10
2017,09,29,03,49,0.70
2017,09,29,03,50,1.60
2017,09,29,03,51,0.00
2017,09,29,03,52,0.00
2017,09,29,03,53,0.00
2017,09,29,03,54,0.10
2017,09,29,03,55,0.70
2017,09,29,03,56,1.00
2017,09,29,03,57,0.10
2017,09,29,03,58,0.10
2017,09,29,03,59,0.00
2017,09,29,04,00,1.10
2017,09,29,04,01,0.70
2017,09,29,04,02,0.90
2017,09,29,04,03,0.10
2017,09,29,04,04,0.00
2017,09,29,04,05,0.00
2017,09,29,04,06,0.00
2017,09,29,04,07,0.00
2017,09,29,04,08,0.00
2017,09,29,04,09,0.90
2017,09,29,04,10,0.00
2017,09,29,04,11,0.10
2017,09,29,04,12,2.30
2017,09,29,04,13,0.00
2017,09,29,04,14,2.10
2017,09,29,04,15,1.00
2017,09,29,04,16,2.10
2017,09,29,04,17,1.10
2017,09,29,04,18,0.70
2017,09,29,04,19,0.60
2017,09,29,04,20,2.40
2017,09,29,04,21,5.00
2017,09,29,04,22,2.40
2017,09,29,04,23,3.50
2017,09,29,04,24,4.80
2017,09,29,04,25,5.70
2017,09,29,04,26,3.20
2017,09,29,04,27,5.00
2017,09,29,04,28,8.40
2017,09,29,04,29,4.60
2017,09,29,04,30,6.80
2017,09,29,04,31,8.80
2017,09,29,04,32,6.30
2017,09,29,04,33,6.60
2017,09,29,04,34,4.50
2017,09,29,04,35,3.40
2017,09,29,04,36,3.10
2017,09,29,04,37,7.00
2017,09,29,04,38,2.80
2017,09,29,04,39,0.70
2017,09,29,04,40,3.00
2017,09,29,04,41,4.20
2017,09,29,04,42,2.90
2017,09,29,04,43,5.80
2017,09,29,04,44,9.00
2017,09,29,04,45,5.80
2017,09,29,04,46,2.80
2017,09,29,04,47,0.30
2017,09,29,04,48,5.00
2017,09,29,04,49,4.10
2017,09,29,04,50,2.00
2017,09,29,04,51,1.90
2017,09,29,04,52,2.30
2017,09,29,04,53,0.30
2017,09,29,04,54,1.40
2017,09,29,04,55,0.60
2017,09,29,04,56,2.00
2017,09,29,04,57,0.00
2017,09,29,04,58,0.10
2017,09,29,04,59,2.10
2017,09,29,05,00,2.90
2017,09,29,05,01,2.20
2017,09,29,05,02,2.80
2017,09,29,05,03,3.60
2017,09,29,05,04,2.70
2017,09,29,05,05,2.50
2017,09,29,05,06,1.00
2017,09,29,05,07,3.30
2017,09,29,05,08,1.90
2017,09,29,05,09,0.00
2017,09,29,05,10,2.80
2017,09,29,05,11,3.10
2017,09,29,05,12,3.80
2017,09,29,05,13,2.50
2017,09,29,05,14,2.50
2017,09,29,05,15,2.20
2017,09,29,05,16,0.00
2017,09,29,05,17,0.00
2017,09,29,05,18,0.00
2017,09,29,05,19,0.00
2017,09,29,05,20,0.00
2017,09,29,05,21,0.00
2017,09,29,05,22,0.00
2017,09,29,05,23,0.00
2017,09,29,05,24,0.10
2017,09,29,05,25,0.50
2017,09,29,05,26,2.80
2017,09,29,05,27,3.30
2017,09,29,05,28,0.10
2017,09,29,05,29,0.10
2017,09,29,05,30,0.00
2017,09,29,05,31,0.00
2017,09,29,05,32,0.10
2017,09,29,05,33,1.40
2017,09,29,05,34,2.40
2017,09,29,05,35,2.80
2017,09,29,05,36,1.40
2017,09,29,05,37,3.00
2017,09,29,05,38,2.70
2017,09,29,05,39,4.40
2017,09,29,05,40,2.60
2017,09,29,05,41,1.70
2017,09,29,05,42,2.30
2017,09,29,05,43,3.60
2017,09,29,05,44,1.60
2017,09,29,05,45,0.00
2017,09,29,05,46,0.00
2017,09,29,05,47,0.00
2017,09,29,05,48,0.00
2017,09,29,05,49,0.00
2017,09,29,05,50,0.00
2017,09,29,05,51,0.00
2017,09,29,05,52,0.00
2017,09,29,05,53,1.40
2017,09,29,05,54,1.50
2017,09,29,05,55,0.00
2017,09,29,05,56,2.10
2017,09,29,05,57,1.90
2017,09,29,05,58,2.60
2017,09,29,05,59,1.80
2017,09,29,06,00,0.10
2017,09,29,06,01,0.10
2017,09,29,06,02,2.70
2017,09,29,06,03,0.70
2017,09,29,06,04,0.10
2017,09,29,06,05,1.60
2017,09,29,06,06,2.30
2017,09,29,06,07,0.50
2017,09,29,06,08,0.10
2017,09,29,06,09,2.40
2017,09,29,06,10,0.10
2017,09,29,06,11,3.40
2017,09,29,06,12,0.40
2017,09,29,06,13,2.30
2017,09,29,06,14,1.00
2017,09,29,06,15,1.80
2017,09,29,06,16,1.40
2017,09,29,06,17,0.00
2017,09,29,06,18,0.00
2017,09,29,06,19,0.50
2017,09,29,06,20,0.60
2017,09,29,06,21,1.30
2017,09,29,06,22,1.90
2017,09,29,06,23,0.70
2017,09,29,06,24,0.00
2017,09,29,06,25,0.10
2017,09,29,06,26,0.10
2017,09,29,06,27,0.00
2017,09,29,06,28,0.80
2017,09,29,06,29,0.00
2017,09,29,06,30,1.40
2017,09,29,06,31,0.20
2017,09,29,06,32,0.00
2017,09,29,06,33,0.20
2017,09,29,06,34,0.10
2017,09,29,06,35,0.00
2017,09,29,06,36,0.00
2017,09,29,06,37,0.00
2017,09,29,06,38,0.00
2017,09,29,06,39,0.00
2017,09,29,06,40,0.00
2017,09,29,06,41,0.00
2017,09,29,06,42,0.00
2017,09,29,06,43,0.00
2017,09,29,06,44,0.00
2017,09,29,06,45,1.70
2017,09,29,06,46,0.20
2017,09,29,06,47,1.90
2017,09,29,06,48,0.00
2017,09,29,06,49,0.00
2017,09,29,06,50,0.10
2017,09,29,06,51,0.00
2017,09,29,06,52,0.00
2017,09,29,06,53,0.00
2017,09,29,06,54,0.20
2017,09,29,06,55,0.00
2017,09,29,06,56,0.00
2017,09,29,06,57,0.10
2017,09,29,06,58,1.30
2017,09,29,06,59,0.00
2017,09,29,07,00,1.50
2017,09,29,07,01,0.10
2017,09,29,07,02,1.00
2017,09,29,07,03,1.80
2017,09,29,07,04,2.20
2017,09,29,07,05,0.60
2017,09,29,07,06,0.80
2017,09,29,07,07,0.20
2017,09,29,07,08,0.10
2017,09,29,07,09,4.70
2017,09,29,07,10,4.20
2017,09,29,07,11,4.20
2017,09,29,07,12,3.50
2017,09,29,07,13,3.00
2017,09,29,07,14,1.80
2017,09,29,07,15,0.10
2017,09,29,07,16,0.00
2017,09,29,07,17,2.10
2017,09,29,07,18,2.90
2017,09,29,07,19,2.80
2017,09,29,07,20,5.60
2017,09,29,07,21,2.90
2017,09,29,07,22,2.50
2017,09,29,07,23,1.50
2017,09,29,07,24,0.10
2017,09,29,07,25,0.00
2017,09,29,07,26,3.10
2017,09,29,07,27,2.40
2017,09,29,07,28,0.70
2017,09,29,07,29,1.70
2017,09,29,07,30,1.50
2017,09,29,07,31,0.00
2017,09,29,07,32,0.00
2017,09,29,07,33,0.00
2017,09,29,07,34,0.10
2017,09,29,07,35,0.00
2017,09,29,07,36,0.00
2017,09,29,07,37,1.90
2017,09,29,07,38,1.20
2017,09,29,07,39,0.00
2017,09,29,07,40,3.70
2017,09,29,07,41,6.00
2017,09,29,07,42,7.10
2017,09,29,07,43,8.60
2017,09,29,07,44,8.30
2017,09,29,07,45,6.10
2017,09,29,07,46,7.20
2017,09,29,07,47,6.60
2017,09,29,07,48,2.30
2017,09,29,07,49,0.20
2017,09,29,07,50,5.00
2017,09,29,07,51,4.10
2017,09,29,07,52,2.70
2017,09,29,07,53,6.40
2017,09,29,07,54,4.00
2017,09,29,07,55,4.00
2017,09,29,07,56,5.60
2017,09,29,07,57,5.30
2017,09,29,07,58,7.30
2017,09,29,07,59,7.80
2017,09,29,08,00,6.30
2017,09,29,08,01,8.80
2017,09,29,08,02,4.90
2017,09,29,08,03,9.90
2017,09,29,08,04,10.10
2017,09,29,08,05,9.00
2017,09,29,08,06,10.00
2017,09,29,08,07,10.80
2017,09,29,08,08,8.30
2017,09,29,08,09,8.60
2017,09,29,08,10,7.80
2017,09,29,08,11,7.20
2017,09,29,08,12,5.90
2017,09,29,08,13,6.60
2017,09,29,08,14,8.30
2017,09,29,08,15,7.00
2017,09,29,08,16,6.90
2017,09,29,08,17,5.20
2017,09,29,08,18,5.80
2017,09,29,08,19,4.90
2017,09,29,08,20,6.40
2017,09,29,08,21,8.40
2017,09,29,08,22,4.70
2017,09,29,08,23,5.90
2017,09,29,08,24,5.00
2017,09,29,08,25,7.40
2017,09,29,08,26,9.10
2017,09,29,08,27,7.30
2017,09,29,08,28,5.30
2017,09,29,08,29,5.70
2017,09,29,08,30,7.70
2017,09,29,08,31,6.60
2017,09,29,08,32,5.70
2017,09,29,08,33,7.80
2017,09,29,08,34,8.40
2017,09,29,08,35,9.20
2017,09,29,08,36,10.20
2017,09,29,08,37,8.20
2017,09,29,08,38,9.10
2017,09,29,08,39,10.10
2017,09,29,08,40,7.90
2017,09,29,08,41,9.00
2017,09,29,08,42,11.10
2017,09,29,08,43,8.70
2017,09,29,08,44,7.50
2017,09,29,08,45,7.00
2017,09,29,08,46,5.30
2017,09,29,08,47,5.30
2017,09,29,08,48,6.70
2017,09,29,08,49,6.60
2017,09,29,08,50,8.10
2017,09,29,08,51,8.10
2017,09,29,08,52,4.60
2017,09,29,08,53,5.90
2017,09,29,08,54,4.50
2017,09,29,08,55,9.80
2017,09,29,08,56,7.90
2017,09,29,08,57,7.50
2017,09,29,08,58,4.40
2017,09,29,08,59,5.20
2017,09,29,09,00,4.50
2017,09,29,09,01,9.20
2017,09,29,09,02,9.50
2017,09,29,09,03,9.50
2017,09,29,09,04,8.80
2017,09,29,09,05,7.70
2017,09,29,09,06,7.30
2017,09,29,09,07,7.00
2017,09,29,09,08,8.40
2017,09,29,09,09,9.70
2017,09,29,09,10,8.50
2017,09,29,09,11,8.80
2017,09,29,09,12,9.50
2017,09,29,09,13,8.60
2017,09,29,09,14,10.30
2017,09,29,09,15,9.40
2017,09,29,09,16,9.70
2017,09,29,09,17,8.10
2017,09,29,09,18,8.00
2017,09,29,09,19,8.20
2017,09,29,09,20,6.30
2017,09,29,09,21,8.90
2017,09,29,09,22,6.00
2017,09,29,09,23,4.60
2017,09,29,09,24,11.50
2017,09,29,09,25,8.50
2017,09,29,09,26,7.00
2017,09,29,09,27,6.30
2017,09,29,09,28,7.90
2017,09,29,09,29,6.10
2017,09,29,09,30,8.30
2017,09,29,09,31,8.20
2017,09,29,09,32,7.00
2017,09,29,09,33,8.20
2017,09,29,09,34,9.00
2017,09,29,09,35,8.10
2017,09,29,09,36,8.20
2017,09,29,09,37,5.60
2017,09,29,09,38,9.10
2017,09,29,09,39,8.50
2017,09,29,09,40,4.80
2017,09,29,09,41,5.50
2017,09,29,09,42,6.10
2017,09,29,09,43,8.10
2017,09,29,09,44,6.50
2017,09,29,09,45,5.20
2017,09,29,09,46,5.00
2017,09,29,09,47,7.10
2017,09,29,09,48,2.90
2017,09,29,09,49,1.40
2017,09,29,09,50,2.80
2017,09,29,09,51,4.60
2017,09,29,09,52,3.50
2017,09,29,09,53,4.80
2017,09,29,09,54,4.60
2017,09,29,09,55,4.90
2017,09,29,09,56,5.00
2017,09,29,09,57,3.60
2017,09,29,09,58,4.70
2017,09,29,09,59,4.60
2017,09,29,10,00,5.30
2017,09,29,10,01,5.30
2017,09,29,10,02,6.00
2017,09,29,10,03,5.10
2017,09,29,10,04,4.60
2017,09,29,10,05,3.20
2017,09,29,10,06,1.60
2017,09,29,10,07,4.30
2017,09,29,10,08,6.40
2017,09,29,10,09,5.00
2017,09,29,10,10,3.50
2017,09,29,10,11,6.20
2017,09,29,10,12,8.80
2017,09,29,10,13,5.70
2017,09,29,10,14,3.40
2017,09,29,10,15,7.20
2017,09,29,10,16,4.30
2017,09,29,10,17,7.50
2017,09,29,10,18,9.00
2017,09,29,10,19,9.00
2017,09,29,10,20,8.70
2017,09,29,10,21,8.40
2017,09,29,10,22,6.60
2017,09,29,10,23,5.40
2017,09,29,10,24,7.20
2017,09,29,10,25,5.40
2017,09,29,10,26,5.80
2017,09,29,10,27,4.50
2017,09,29,10,28,7.50
2017,09,29,10,29,5.70
2017,09,29,10,30,4.10
2017,09,29,10,31,2.80
2017,09,29,10,32,3.00
2017,09,29,10,33,4.20
2017,09,29,10,34,5.30
2017,09,29,10,35,6.80
2017,09,29,10,36,9.30
2017,09,29,10,37,6.10
2017,09,29,10,38,3.40
2017,09,29,10,39,4.00
2017,09,29,10,40,3.00
2017,09,29,10,41,1.40
2017,09,29,10,42,4.30
2017,09,29,10,43,4.20
2017,09,29,10,44,2.60
2017,09,29,10,45,6.00
2017,09,29,10,46,3.80
2017,09,29,10,47,3.60
2017,09,29,10,48,2.80
2017,09,29,10,49,2.20
2017,09,29,10,50,0.00
2017,09,29,10,51,0.70
2017,09,29,10,52,3.00
2017,09,29,10,53,0.50
2017,09,29,10,54,1.50
2017,09,29,10,55,3.10
2017,09,29,10,56,2.10
2017,09,29,10,57,1.20
2017,09,29,10,58,3.20
2017,09,29,10,59,4.10
2017,09,29,11,00,1.70
2017,09,29,11,01,0.00
2017,09,29,11,02,2.50
2017,09,29,11,03,3.40
2017,09,29,11,04,3.30
2017,09,29,11,05,4.00
2017,09,29,11,06,5.20
2017,09,29,11,07,3.00
2017,09,29,11,08,3.50
2017,09,29,11,09,4.40
2017,09,29,11,10,2.40
2017,09,29,11,11,3.70
2017,09,29,11,12,4.80
2017,09,29,11,13,5.10
2017,09,29,11,14,4.90
2017,09,29,11,15,3.80
2017,09,29,11,16,5.60
2017,09,29,11,17,5.40
2017,09,29,11,18,4.70
2017,09,29,11,19,3.50
2017,09,29,11,20,1.80
2017,09,29,11,21,0.70
2017,09,29,11,22,0.00
2017,09,29,11,23,0.00
2017,09,29,11,24,0.10
2017,09,29,11,25,1.80
2017,09,29,11,26,3.80
2017,09,29,11,27,1.30
2017,09,29,11,28,1.20
2017,09,29,11,29,1.40
2017,09,29,11,30,4.40
2017,09,29,11,31,5.40
2017,09,29,11,32,3.90
2017,09,29,11,33,2.50
2017,09,29,11,34,4.40
2017,09,29,11,35,2.60
2017,09,29,11,36,2.10
2017,09,29,11,37,3.40
2017,09,29,11,38,2.90
2017,09,29,11,39,5.30
2017,09,29,11,40,2.10
2017,09,29,11,41,4.30
2017,09,29,11,42,5.10
2017,09,29,11,43,2.80
2017,09,29,11,44,0.70
2017,09,29,11,45,0.00
2017,09,29,11,46,0.90
2017,09,29,11,47,1.60
2017,09,29,11,48,2.00
2017,09,29,11,49,0.10
2017,09,29,11,50,3.20
2017,09,29,11,51,4.50
2017,09,29,11,52,4.60
2017,09,29,11,53,2.90
2017,09,29,11,54,0.50
2017,09,29,11,55,0.00
2017,09,29,11,56,1.30
2017,09,29,11,57,3.40
2017,09,29,11,58,2.40
2017,09,29,11,59,1.40
2017,09,29,12,00,2.40
2017,09,29,12,01,1.40
2017,09,29,12,02,1.10
2017,09,29,12,03,2.70
2017,09,29,12,04,0.90
2017,09,29,12,05,1.60
2017,09,29,12,06,1.70
2017,09,29,12,07,0.00
2017,09,29,12,08,0.00
2017,09,29,12,09,1.00
2017,09,29,12,10,2.70
2017,09,29,12,11,1.80
2017,09,29,12,12,0.00
2017,09,29,12,13,0.10
2017,09,29,12,14,2.90
2017,09,29,12,15,2.90
2017,09,29,12,16,0.30
2017,09,29,12,17,0.00
2017,09,29,12,18,0.00
2017,09,29,12,19,0.00
2017,09,29,12,20,1.20
2017,09,29,12,21,1.70
2017,09,29,12,22,0.30
2017,09,29,12,23,1.70
2017,09,29,12,24,1.50
2017,09,29,12,25,0.90
2017,09,29,12,26,3.60
2017,09,29,12,27,5.30
2017,09,29,12,28,5.10
2017,09,29,12,29,6.60
2017,09,29,12,30,7.00
2017,09,29,12,31,7.20
2017,09,29,12,32,9.30
2017,09,29,12,33,8.50
2017,09,29,12,34,6.40
2017,09,29,12,35,6.70
2017,09,29,12,36,5.30
2017,09,29,12,37,5.30
2017,09,29,12,38,6.80
2017,09,29,12,39,4.00
2017,09,29,12,40,5.70
2017,09,29,12,41,5.20
2017,09,29,12,42,4.30
2017,09,29,12,43,4.20
2017,09,29,12,44,3.60
2017,09,29,12,45,4.60
2017,09,29,12,46,4.10
2017,09,29,12,47,1.70
2017,09,29,12,48,2.60
2017,09,29,12,49,2.30
2017,09,29,12,50,2.90
2017,09,29,12,51,3.60
2017,09,29,12,52,2.10
2017,09,29,12,53,6.10
2017,09,29,12,54,6.10
2017,09,29,12,55,4.80
2017,09,29,12,56,0.20
2017,09,29,12,57,5.40
2017,09,29,12,58,6.00
2017,09,29,12,59,7.50
2017,09,29,13,00,3.50
2017,09,29,13,01,3.60
2017,09,29,13,02,4.20
2017,09,29,13,03,2.40
2017,09,29,13,04,1.60
2017,09,29,13,05,0.20
2017,09,29,13,06,5.10
2017,09,29,13,07,1.40
2017,09,29,13,08,0.00
2017,09,29,13,09,0.00
2017,09,29,13,10,1.60
2017,09,29,13,11,3.90
2017,09,29,13,12,5.40
2017,09,29,13,13,5.90
2017,09,29,13,14,2.40
2017,09,29,13,15,5.60
2017,09,29,13,16,5.60
2017,09,29,13,17,5.10
2017,09,29,13,18,3.80
2017,09,29,13,19,5.00
2017,09,29,13,20,4.90
2017,09,29,13,21,2.50
2017,09,29,13,22,5.70
2017,09,29,13,23,4.30
2017,09,29,13,24,3.90
2017,09,29,13,25,0.30
2017,09,29,13,26,2.40
2017,09,29,13,27,4.50
2017,09,29,13,28,6.00
2017,09,29,13,29,4.60
2017,09,29,13,30,3.90
2017,09,29,13,31,3.00
2017,09,29,13,32,3.30
2017,09,29,13,33,5.30
2017,09,29,13,34,3.20
2017,09,29,13,35,3.30
2017,09,29,13,36,3.80
2017,09,29,13,37,3.50
2017,09,29,13,38,2.20
2017,09,29,13,39,2.40
2017,09,29,13,40,4.50
2017,09,29,13,41,6.10
2017,09,29,13,42,8.60
2017,09,29,13,43,8.60
2017,09,29,13,44,8.10
2017,09,29,13,45,6.40
2017,09,29,13,46,7.00
2017,09,29,13,47,6.30
2017,09,29,13,48,6.30
2017,09,29,13,49,7.30
2017,09,29,13,50,8.50
2017,09,29,13,51,6.60
2017,09,29,13,52,6.00
2017,09,29,13,53,2.80
2017,09,29,13,54,2.80
2017,09,29,13,55,4.50
2017,09,29,13,56,7.20
2017,09,29,13,57,6.60
2017,09,29,13,58,4.80
2017,09,29,13,59,3.10
2017,09,29,14,00,4.30
2017,09,29,14,01,4.70
2017,09,29,14,02,4.30
2017,09,29,14,03,6.70
2017,09,29,14,04,1.20
2017,09,29,14,05,5.80
2017,09,29,14,06,7.60
2017,09,29,14,07,3.30
2017,09,29,14,08,5.30
2017,09,29,14,09,7.50
2017,09,29,14,10,7.60
2017,09,29,14,11,7.90
2017,09,29,14,12,7.50
2017,09,29,14,13,9.80
2017,09,29,14,14,8.30
2017,09,29,14,15,7.60
2017,09,29,14,16,7.20
2017,09,29,14,17,10.20
2017,09,29,14,18,19.60
2017,09,29,14,19,15.80
2017,09,29,14,20,8.60
2017,09,29,14,21,11.30
2017,09,29,14,22,12.40
2017,09,29,14,23,12.60
2017,09,29,14,24,5.80
2017,09,29,14,25,12.60
2017,09,29,14,26,12.70
2017,09,29,14,27,17.30
2017,09,29,14,28,18.40
2017,09,29,14,29,15.10
2017,09,29,14,30,14.30
2017,09,29,14,31,10.00
2017,09,29,14,32,11.20
2017,09,29,14,33,9.80
2017,09,29,14,34,8.90
2017,09,29,14,35,14.30
2017,09,29,14,36,11.40
2017,09,29,14,37,13.70
2017,09,29,14,38,17.30
2017,09,29,14,39,14.30
2017,09,29,14,40,19.40
2017,09,29,14,41,18.10
2017,09,29,14,42,14.00
2017,09,29,14,43,16.90
2017,09,29,14,44,16.90
2017,09,29,14,45,16.70
2017,09,29,14,46,13.90
2017,09,29,14,47,13.80
2017,09,29,14,48,19.90
2017,09,29,14,49,16.60
2017,09,29,14,50,13.50
2017,09,29,14,51,13.90
2017,09,29,14,52,16.80
2017,09,29,14,53,15.70
2017,09,29,14,54,18.40
2017,09,29,14,55,14.50
2017,09,29,14,56,14.80
2017,09,29,14,57,16.20
2017,09,29,14,58,16.20
2017,09,29,14,59,17.90
2017,09,29,15,00,14.30
2017,09,29,15,01,11.10
2017,09,29,15,02,16.10
2017,09,29,15,03,20.60
2017,09,29,15,04,20.10
2017,09,29,15,05,22.30
2017,09,29,15,06,14.70
2017,09,29,15,07,14.80
2017,09,29,15,08,14.50
2017,09,29,15,09,19.90
2017,09,29,15,10,13.70
2017,09,29,15,11,12.40
2017,09,29,15,12,13.10
2017,09,29,15,13,22.60
2017,09,29,15,14,16.50
2017,09,29,15,15,19.40
2017,09,29,15,16,19.90
2017,09,29,15,17,16.20
2017,09,29,15,18,19.20
2017,09,29,15,19,17.40
2017,09,29,15,20,16.60
2017,09,29,15,21,14.70
2017,09,29,15,22,22.90
2017,09,29,15,23,21.10
2017,09,29,15,24,17.30
2017,09,29,15,25,13.10
2017,09,29,15,26,15.10
2017,09,29,15,27,20.10
2017,09,29,15,28,16.40
2017,09,29,15,29,25.60
2017,09,29,15,30,20.80
2017,09,29,15,31,26.70
2017,09,29,15,32,28.60
2017,09,29,15,33,21.70
2017,09,29,15,34,17.00
2017,09,29,15,35,23.70
2017,09,29,15,36,20.20
2017,09,29,15,37,17.50
2017,09,29,15,38,24.40
2017,09,29,15,39,18.70
2017,09,29,15,40,26.10
2017,09,29,15,41,18.60
2017,09,29,15,42,15.30
2017,09,29,15,43,12.40
2017,09,29,15,44,21.50
2017,09,29,15,45,27.70
2017,09,29,15,46,27.50
2017,09,29,15,47,30.80
2017,09,29,15,48,21.50
2017,09,29,15,49,17.40
2017,09,29,15,50,18.90
2017,09,29,15,51,22.90
2017,09,29,15,52,26.60
2017,09,29,15,53,24.00
2017,09,29,15,54,23.20
2017,09,29,15,55,31.00
2017,09,29,15,56,25.60
2017,09,29,15,57,27.70
2017,09,29,15,58,24.50
2017,09,29,15,59,20.30
2017,09,29,16,00,22.40
2017,09,29,16,01,26.80
2017,09,29,16,02,28.70
2017,09,29,16,03,26.80
2017,09,29,16,04,21.40
2017,09,29,16,05,27.40
2017,09,29,16,06,26.30
2017,09,29,16,07,24.80
2017,09,29,16,08,19.80
2017,09,29,16,09,22.90
2017,09,29,16,10,23.40
2017,09,29,16,11,25.80
2017,09,29,16,12,22.30
2017,09,29,16,13,16.10
2017,09,29,16,14,22.20
2017,09,29,16,15,26.10
2017,09,29,16,16,18.20
2017,09,29,16,17,25.90
2017,09,29,16,18,19.40
2017,09,29,16,19,24.50
2017,09,29,16,20,26.40
2017,09,29,16,21,27.10
2017,09,29,16,22,21.40
2017,09,29,16,23,26.50
2017,09,29,16,24,17.30
2017,09,29,16,25,29.60
2017,09,29,16,26,31.20
2017,09,29,16,27,25.60
2017,09,29,16,28,15.80
2017,09,29,16,29,21.30
2017,09,29,16,30,31.10
2017,09,29,16,31,28.80
2017,09,29,16,32,25.60
2017,09,29,16,33,26.00
2017,09,29,16,34,21.20
2017,09,29,16,35,22.20
2017,09,29,16,36,16.40
2017,09,29,16,37,29.70
2017,09,29,16,38,22.10
2017,09,29,16,39,20.20
2017,09,29,16,40,20.00
2017,09,29,16,41,20.30
2017,09,29,16,42,21.00
2017,09,29,16,43,23.70
2017,09,29,16,44,20.20
2017,09,29,16,45,17.80
2017,09,29,16,46,23.80
2017,09,29,16,47,27.70
2017,09,29,16,48,27.40
2017,09,29,16,49,23.10
2017,09,29,16,50,31.20
2017,09,29,16,51,28.10
2017,09,29,16,52,23.20
2017,09,29,16,53,23.80
2017,09,29,16,54,23.20
2017,09,29,16,55,24.50
2017,09,29,16,56,22.00
2017,09,29,16,57,26.20
2017,09,29,16,58,30.10
2017,09,29,16,59,29.90
2017,09,29,17,00,28.50
2017,09,29,17,01,25.90
2017,09,29,17,02,22.50
2017,09,29,17,03,14.20
2017,09,29,17,04,20.50
2017,09,29,17,05,17.30
2017,09,29,17,06,20.00
2017,09,29,17,07,22.70
2017,09,29,17,08,26.70
2017,09,29,17,09,24.90
2017,09,29,17,10,19.70
2017,09,29,17,11,23.70
2017,09,29,17,12,25.80
2017,09,29,17,13,28.30
2017,09,29,17,14,28.40
2017,09,29,17,15,24.70
2017,09,29,17,16,23.20
2017,09,29,17,17,22.20
2017,09,29,17,18,24.90
2017,09,29,17,19,19.70
2017,09,29,17,20,17.80
2017,09,29,17,21,23.50
2017,09,29,17,22,26.20
2017,09,29,17,23,16.00
2017,09,29,17,24,21.20
2017,09,29,17,25,23.50
2017,09,29,17,26,20.40
2017,09,29,17,27,21.10
2017,09,29,17,28,29.60
2017,09,29,17,29,27.10
2017,09,29,17,30,31.00
2017,09,29,17,31,22.20
2017,09,29,17,32,33.00
2017,09,29,17,33,24.80
2017,09,29,17,34,33.70
2017,09,29,17,35,29.50
2017,09,29,17,36,24.00
2017,09,29,17,37,30.20
2017,09,29,17,38,25.10
2017,09,29,17,39,32.00
2017,09,29,17,40,31.40
2017,09,29,17,41,28.80
2017,09,29,17,42,33.40
2017,09,29,17,43,30.30
2017,09,29,17,44,30.20
2017,09,29,17,45,31.90
2017,09,29,17,46,26.60
2017,09,29,17,47,29.80
2017,09,29,17,48,29.60
2017,09,29,17,49,30.90
2017,09,29,17,50,37.10
2017,09,29,17,51,30.70
2017,09,29,17,52,29.20
2017,09,29,17,53,33.40
2017,09,29,17,54,28.50
2017,09,29,17,55,30.00
2017,09,29,17,56,25.40